www.pogodaiklimat.ru

Погода и климат >> Архив погоды >> Венгрия >> Залаэгерсег


ПОГОДА в Залаэгерсеге

  • Прогноз погоды в Залаэгерсеге
  • Монитор погоды в Залаэгерсеге

АРХИВ ПОГОДЫ в Залаэгерсеге

Время (UTC), дата Ветер
(напр.,м/с)
 
Видим.   Явления Облачность Т
(С)
Тd
(С)
f
(%)
Тe
(С)
Тes
(С)
Комфортность P
(гПа)
Po
(гПа)
Тmin
(С)
Tmax
(С)
R
(мм)
R24
(мм)
S
(см)
19 10.06 Ю 1 н/о н/о +23.7 +17.2 67 +28 +28 душно 1012.8 985.2
20 10.06 В 2 н/о н/о +21.7 +17.1 75 +26 +26 душно 1013.2 985.4
21 10.06 ЮВ 2 н/о н/о +21.9 +17.1 74 +26 +26 душно 1013.0 985.2
22 10.06 В 2 н/о н/о +19.8 +17.4 86 +23 +23 комфорт 1013.2 985.2
23 10.06 ЮВ 2 н/о н/о +19.4 +17.0 86 +22 +22 комфорт 1013.1 985.0
00 11.06 ЮВ 2 н/о н/о +19.6 +16.8 84 +22 +22 комфорт 1012.6 984.6
01 11.06 В 3 н/о н/о +19.1 +17.1 88 +21 +21 комфорт 1012.3 984.2
02 11.06 В 2 н/о н/о +19.4 +17.2 87 +22 +22 комфорт 1011.6 983.6
03 11.06 В 2 н/о н/о +18.2 +16.2 88 +19 +19 1011.7 983.6
04 11.06 В 2 н/о н/о +19.6 +17.4 87 +23 +23 комфорт 1011.7 983.7
05 11.06 ЮВ 1 н/о н/о +22.1 +18.5 80 +27 +27 душно 1011.8 984.0
06 11.06 В 3 н/о н/о +23.1 +18.2 74 +29 +29 очень
душно
1011.9 984.2 +17.4
07 11.06 В 3 н/о н/о +24.9 +19.9 74 +30 +30 душно 1011.8 984.3
08 11.06 В 4 н/о н/о +26.9 +19.3 63 +32 +32 очень
душно
1011.8 984.5
09 11.06 ЮВ 3 н/о н/о +27.6 +18.6 58 +33 +33 очень
душно
1012.1 984.8
10 11.06 ЮВ 3
{7}
н/о н/о +28.0 +20.0 62 +34 +34 очень
душно
1011.9 984.7
11 11.06 ЮВ 4
{7}
н/о н/о +28.6 +18.7 55 +34 +34 очень
душно
1011.8 984.6
12 11.06 В 4
{7}
н/о н/о +29.1 +17.6 50 +33 +33 очень
душно
1011.3 984.2
13 11.06 В 4
{7}
н/о н/о +29.6 +18.4 51 +34 +34 очень
душно
1011.0 983.9
14 11.06 В 5
{8}
н/о н/о +29.3 +17.2 48 +33 +33 душно 1010.4 983.3
15 11.06 В 5
{9}
н/о н/о +29.1 +17.3 49 +33 +33 очень
душно
1010.4 983.3
16 11.06 ЮВ 3 н/о н/о +28.7 +18.2 53 +33 +33 очень
душно
1010.3 983.2
17 11.06 Ю 2 н/о н/о +26.8 +17.6 57 +31 +31 душно 1011.7 984.4
18 11.06 ЮВ 2 н/о н/о +24.7 +19.3 72 +30 +30 очень
душно
1011.6 984.1 +29.8
19 11.06 Ю 2 н/о н/о +24.6 +17.3 64 +29 +29 душно 1012.2 984.7
20 11.06 ЮВ 3 н/о н/о +22.0 +18.0 78 +27 +27 душно 1013.0 985.2
21 11.06 Ю 3 н/о н/о +22.6 +17.5 73 +28 +28 душно 1013.7 985.9
22 11.06 Ю 2 н/о н/о +20.9 +15.2 70 +25 +25 комфорт 1013.4 985.5
23 11.06 ЮВ 4 н/о н/о +21.0 +13.7 63 +24 +24 комфорт 1012.6 984.7
00 12.06 ЮВ 4
{9}
н/о н/о +20.7 +11.9 57 +23 +23 комфорт 1011.1 983.2
01 12.06 СЗ 3
{8}
н/о н/о +19.8 +12.8 64 +22 +22 комфорт 1011.1 983.1
02 12.06 ЮВ 3 н/о н/о +18.1 +13.2 73 +18 +18 1011.3 983.2
03 12.06 ЮЗ 1 н/о н/о +18.9 +13.3 70 +21 +21 комфорт 1012.4 984.3
04 12.06 Ю 2 н/о н/о +19.0 +13.4 70 +21 +21 комфорт 1012.7 984.6
05 12.06 ЮВ 2 н/о н/о +19.8 +14.6 72 +22 +22 комфорт 1012.6 984.6
06 12.06 ЮВ 3 н/о н/о +22.7 +15.5 64 +27 +27 душно 1012.4 984.7 +17.8
07 12.06 ЮВ 4
{7}
н/о н/о +23.4 +16.2 64 +28 +28 душно 1012.7 985.0
08 12.06 ЮВ 3 н/о н/о +25.1 +17.8 64 +29 +29 душно 1012.6 985.1
09 12.06 ЮВ 4 н/о н/о +26.5 +17.8 59 +31 +31 душно 1012.5 985.1
10 12.06 ЮВ 5
{8}
н/о н/о +26.8 +18.4 60 +32 +32 очень
душно
1012.1 984.8
11 12.06 ЮВ 5
{8}
н/о н/о +27.5 +17.1 53 +31 +31 душно 1011.8 984.5
12 12.06 ЮВ 5
{9}
н/о н/о +28.0 +16.9 51 +32 +32 душно 1011.3 984.1
13 12.06 ЮВ 5
{9}
н/о н/о +28.5 +16.4 48 +32 +32 душно 1011.0 983.8
14 12.06 ЮВ 5
{8}
н/о н/о +28.7 +17.3 50 +33 +33 очень
душно
1010.7 983.6
15 12.06 ЮВ 4
{8}
н/о н/о +28.8 +16.7 48 +32 +32 душно 1010.3 983.2
16 12.06 ЮВ 5
{7}
н/о н/о +28.2 +18.0 54 +33 +33 очень
душно
1010.0 982.8
17 12.06 ЮВ 4
{7}
н/о н/о +27.0 +17.5 56 +31 +31 душно 1010.2 982.9
18 12.06 ЮВ 3 н/о н/о +25.8 +18.2 63 +30 +30 душно 1010.4 983.0 +29.2
19 12.06 ЮВ 2 н/о н/о +24.1 +18.1 69 +28 +28 душно 1011.0 983.4
20 12.06 ЮВ 2 н/о н/о +23.2 +17.7 71 +29 +29 душно 1011.6 983.9
21 12.06 ЮВ 2 н/о н/о +22.3 +17.4 74 +27 +27 душно 1011.8 984.1
22 12.06 ЮВ 3 н/о н/о +22.0 +17.2 74 +26 +26 душно 1011.7 983.9
23 12.06 ЮВ 3 н/о н/о +20.5 +16.9 80 +24 +24 комфорт 1011.8 983.9
00 13.06 ЮВ 3 н/о н/о +21.3 +17.1 77 +25 +25 комфорт 1011.6 983.8
01 13.06 ЮВ 3 н/о н/о +21.0 +17.4 80 +25 +25 комфорт 1011.4 983.5
02 13.06 ЮВ 2 н/о н/о +19.5 +17.1 86 +22 +22 комфорт 1011.5 983.5
03 13.06 ЮВ 3 н/о н/о +19.6 +17.4 87 +22 +22 комфорт 1011.6 983.6
04 13.06 штиль 0 н/о н/о +19.9 +17.5 86 +22 +22 комфорт 1011.8 983.8
05 13.06 ЮВ 2 н/о н/о +21.8 +18.0 79 +26 +26 душно 1012.1 984.3
06 13.06 Ю 3 н/о н/о +23.0 +18.3 75 +29 +29 очень
душно
1012.4 984.7 +19.2
07 13.06 Ю 2 н/о н/о +24.7 +19.1 71 +30 +30 очень
душно
1012.4 984.9
08 13.06 Ю 2 н/о н/о +26.1 +19.7 68 +32 +32 очень
душно
1012.4 985.0
09 13.06 Ю 2 н/о н/о +28.0 +19.8 61 +34 +34 очень
душно
1012.2 985.0
10 13.06 Ю 3 н/о н/о +29.0 +19.3 56 +35 +35 очень
душно
1012.3 985.1
11 13.06 Ю 2 н/о н/о +29.9 +17.7 48 +34 +34 очень
душно
1012.1 985.0
12 13.06 Ю 4
{7}
н/о н/о +29.7 +17.2 47 +34 +34 очень
душно
1011.8 984.7
13 13.06 Ю 3
{7}
н/о н/о +29.2 +18.3 52 +34 +34 очень
душно
1011.8 984.7
14 13.06 Ю 4
{8}
н/о н/о +29.8 +16.6 45 +33 +33 душно 1011.6 984.5
15 13.06 Ю 4
{7}
н/о н/о +29.8 +16.2 44 +33 +33 душно 1011.6 984.5
16 13.06 Ю 4
{7}
н/о н/о +29.1 +16.6 47 +33 +33 очень
душно
1011.5 984.4
17 13.06 Ю 4
{7}
н/о н/о +28.2 +16.2 48 +31 +31 душно 1011.6 984.4
18 13.06 Ю 3 н/о н/о +27.0 +16.6 53 +31 +31 душно 1011.7 984.4 +30.4
19 13.06 Ю 3 н/о н/о +24.4 +15.1 56 +27 +27 жарко 1012.3 984.7
20 13.06 Ю 3 н/о н/о +23.0 +14.6 59 +27 +27 душно 1012.8 985.1
21 13.06 Ю 4 н/о н/о +22.6 +14.2 59 +26 +26 жарко 1013.1 985.3
22 13.06 Ю 4
{7}
н/о н/о +22.1 +13.5 58 +25 +25 комфорт 1013.8 986.0
23 13.06 Ю 3 н/о н/о +20.6 +13.3 63 +23 +23 комфорт 1014.0 986.0
00 14.06 Ю 3 н/о н/о +19.3 +13.3 68 +21 +21 комфорт 1014.2 986.1
01 14.06 Ю 3 н/о н/о +18.9 +12.4 66 +20 +20 1014.2 986.1
02 14.06 Ю 2 н/о н/о +17.8 +12.0 69 +18 +18 1014.7 986.4
03 14.06 штиль 0 н/о н/о +16.6 +12.2 75 +17 +17 1015.8 987.4
04 14.06 Ю 1 н/о н/о +17.8 +12.0 69 +19 +19 1016.2 987.9
05 14.06 ЮЗ 1 н/о н/о +19.1 +13.5 70 +21 +21 комфорт 1016.7 988.5
06 14.06 ЮЗ 1 н/о н/о +20.9 +14.3 66 +25 +25 комфорт 1017.1 989.1 +15.7
07 14.06 С 3 н/о н/о +24.0 +15.8 60 +27 +27 жарко 1017.5 989.8
08 14.06 СЗ 3 н/о н/о +25.7 +17.4 60 +30 +30 душно 1017.8 990.2
09 14.06 СЗ 2 н/о н/о +27.1 +17.9 57 +32 +32 очень
душно
1017.6 990.1
10 14.06 З 3 н/о н/о +28.1 +17.6 53 +32 +32 душно 1017.7 990.3
11 14.06 СЗ 2 н/о н/о +29.2 +17.4 49 +33 +33 очень
душно
1017.6 990.3
12 14.06 З 2 н/о н/о +30.4 +18.2 48 +35 +35 очень
душно
1017.2 990.0
13 14.06 Ю 1 н/о н/о +30.4 +17.5 46 +34 +34 очень
душно
1016.8 989.6
14 14.06 З 1 н/о н/о +31.1 +15.9 40 +34 +34 душно 1016.4 989.3
15 14.06 ЮВ 1 н/о н/о +31.0 +17.3 44 +35 +35 очень
душно
1016.1 989.0
16 14.06 ЮВ 1 н/о н/о +30.5 +18.3 48 +35 +35 очень
душно
1015.7 988.6
17 14.06 Ю 1 н/о н/о +29.1 +20.0 58 +35 +35 очень
душно
1015.6 988.4
18 14.06 Ю 2 н/о н/о +27.1 +18.7 60 +32 +32 очень
душно
1015.8 988.4 +31.6
19 14.06 Ю 1 н/о н/о +25.7 +18.9 66 +31 +31 очень
душно
1016.1 988.5
20 14.06 Ю 2 н/о н/о +22.8 +19.2 80 +29 +29 очень
душно
1016.5 988.7
21 14.06 ЮВ 1 н/о н/о +21.7 +19.6 88 +27 +27 душно 1016.6 988.7
22 14.06 ЮВ 2 н/о н/о +21.2 +19.1 88 +26 +26 душно 1016.5 988.5
23 14.06 Ю 1 н/о н/о +21.5 +18.7 84 +26 +26 душно 1016.1 988.2
00 15.06 Ю 1 н/о н/о +20.4 +18.2 87 +25 +25 комфорт 1015.9 987.9
01 15.06 ЮВ 2 н/о н/о +19.6 +17.7 89 +23 +23 комфорт 1015.5 987.4
02 15.06 Ю 1 н/о н/о +19.6 +17.7 89 +23 +23 комфорт 1015.2 987.1
03 15.06 ЮВ 3 н/о н/о +19.6 +17.6 88 +22 +22 комфорт 1015.1 987.0
04 15.06 ЮВ 1 н/о н/о +19.8 +18.1 90 +24 +24 комфорт 1015.1 987.0
05 15.06 Ю 2 н/о н/о +20.8 +18.7 88 +26 +26 душно 1014.7 986.7
06 15.06 Ю 2 н/о н/о +23.7 +19.6 78 +29 +29 душно 1014.5 986.8 +18.9
07 15.06 ЮВ 3 н/о н/о +24.6 +19.0 71 +30 +30 очень
душно
1014.4 986.8
08 15.06 Ю 2 н/о н/о +25.7 +18.9 66 +31 +31 очень
душно
1014.6 987.1
09 15.06 Ю 3 н/о н/о +27.1 +19.7 64 +33 +33 очень
душно
1014.4 987.0
10 15.06 Ю 3 н/о н/о +28.5 +18.6 55 +34 +34 очень
душно
1013.9 986.7
11 15.06 ЮВ 4
{7}
н/о н/о +29.2 +18.9 54 +35 +35 очень
душно
1013.7 986.5
12 15.06 Ю 3 н/о н/о +29.3 +18.4 52 +34 +34 очень
душно
1013.4 986.2
13 15.06 Ю 4 н/о н/о +28.6 +19.5 58 +34 +34 очень
душно
1013.2 986.0
14 15.06 Ю 3
{8}
н/о н/о +27.7 +18.4 57 +33 +33 очень
душно
1012.7 985.4
15 15.06 Ю 3 н/о н/о +27.5 +18.2 57 +32 +32 очень
душно
1012.0 984.7
16 15.06 Ю 2 н/о н/о +26.8 +19.4 64 +32 +32 очень
душно
1011.6 984.3
17 15.06 Ю 2 н/о н/о +27.9 +20.2 63 +34 +34 очень
душно
1011.1 983.9
18 15.06 Ю 3 н/о н/о +26.4 +19.5 66 +32 +32 очень
душно
1011.4 984.0 +30.0
19 15.06 Ю 3 н/о н/о +24.8 +19.2 71 +30 +30 душно 1011.4 983.9
20 15.06 Ю 3 н/о н/о +24.3 +18.9 72 +29 +29 душно 1012.0 984.4
21 15.06 Ю 2 н/о н/о +23.9 +19.2 75 +29 +29 душно 1012.0 984.4
22 15.06 Ю 2 н/о н/о +23.3 +18.8 76 +30 +30 очень
душно
1012.3 984.6
23 15.06 Ю 1 н/о н/о +23.2 +18.5 75 +29 +29 душно 1012.0 984.3
00 16.06 Ю 1 н/о н/о +23.5 +18.4 73 +28 +28 душно 1011.6 984.0
01 16.06 С 3 н/о н/о +21.7 +17.9 79 +26 +26 душно 1012.0 984.2
02 16.06 С 2 н/о н/о +20.4 +18.2 87 +25 +25 комфорт 1012.0 984.1
03 16.06 С 2 н/о н/о +21.2 +17.4 79 +25 +25 комфорт 1011.9 984.0
04 16.06 СВ 3 н/о н/о +21.7 +16.4 72 +26 +26 душно 1012.3 984.5
05 16.06 С 3
{7}
н/о н/о +22.2 +16.2 69 +26 +26 душно 1012.5 984.7
06 16.06 С 5
{8}
н/о н/о +23.4 +16.7 66 +28 +28 душно 1013.0 985.3 +20.2
07 16.06 С 6
{10}
н/о н/о +24.0 +16.5 63 +27 +27 жарко 1013.6 986.0
08 16.06 С 5
{10}
н/о н/о +25.5 +17.4 61 +30 +30 душно 1014.1 986.6
09 16.06 С 6
{12}
н/о н/о +25.2 +16.6 59 +29 +29 душно 1014.5 986.9
10 16.06
{11}
н/о н/о +25.3 +16.4 58 1014.7 987.1
11 16.06 С 5
{11}
н/о н/о +26.2 +16.7 56 +30 +30 душно 1014.7 987.2
12 16.06 С 7
{11}
н/о н/о +26.3 +16.8 56 +30 +30 душно 1014.5 987.0
13 16.06 С 7
{12}
н/о н/о +25.9 +16.5 56 +29 +29 душно 1014.3 986.8
14 16.06 С 7
{13}
н/о н/о +26.8 +15.8 51 +30 +30 душно 1013.7 986.3
15 16.06 С 7
{13}
н/о н/о +25.7 +14.8 51 +28 +28 жарко 1014.3 986.8
16 16.06 С 7
{14}
н/о н/о +24.2 +15.4 58 +27 +27 жарко 1015.0 987.3
17 16.06
{15}
н/о н/о +23.0 +14.8 60 1015.6 987.8
18 16.06 С 6
{11}
н/о н/о +21.8 +14.4 63 +25 +25 комфорт 1015.9 988.0 +27.2
19 16.06 З 3
{11}
н/о н/о +18.1 +15.9 87 +18 +18 1018.9 990.6
20 16.06 С 6
{15}
н/о н/о +17.5 +16.5 94 +17 +17 1018.8 990.4
21 16.06 С 6
{12}
н/о н/о +18.2 +15.6 85 +18 +18 1018.4 990.1
22 16.06 С 6
{11}
н/о н/о +18.1 +15.2 83 +18 +18 1017.5 989.2
23 16.06 З 3
{12}
н/о н/о +17.5 +15.0 85 +18 +18 1017.8 989.4
00 17.06 С 5
{11}
н/о н/о +18.0 +14.3 79 +18 +18 1018.2 989.9 47
01 17.06 С 4
{9}
н/о н/о +17.3 +14.4 83 +17 +17 1018.5 990.1
02 17.06 СЗ 5
{9}
н/о н/о +17.9 +13.8 77 +17 +17 1017.9 989.6
03 17.06 СЗ 5
{9}
н/о н/о +18.0 +13.5 75 +18 +18 1018.3 990.0
04 17.06 С 2
{7}
н/о н/о +17.7 +13.8 78 +18 +18 1018.7 990.3
05 17.06 С 2 н/о н/о +19.4 +13.8 70 +21 +21 комфорт 1018.8 990.6
06 17.06 С 3 н/о н/о +20.1 +13.8 67 +22 +22 комфорт 1018.7 990.6 +16.2 47
07 17.06 С 5
{10}
н/о н/о +20.2 +14.3 69 +22 +22 комфорт 1018.8 990.7
08 17.06 С 4
{9}
н/о н/о +20.6 +14.7 69 +23 +23 комфорт 1018.8 990.7
09 17.06
{9}
н/о н/о +21.8 +14.9 65 1018.7 990.7
10 17.06 С 4
{9}
н/о н/о +23.2 +16.5 66 +28 +28 душно 1018.4 990.6
11 17.06 С 5
{9}
н/о н/о +23.8 +16.1 62 +27 +27 жарко 1018.2 990.4
12 17.06 С 4
{7}
н/о н/о +24.9 +16.9 61 +29 +29 душно 1017.8 990.1
13 17.06 С 3
{7}
н/о н/о +25.1 +16.5 59 +29 +29 душно 1017.4 989.8
14 17.06
{7}
н/о н/о +24.9 +16.9 61 1016.7 989.1
15 17.06 СВ 3
{7}
н/о н/о +24.5 +16.2 60 +28 +28 душно 1016.6 988.9
16 17.06 С 3 н/о н/о +24.5 +17.0 63 +28 +28 душно 1016.3 988.6
17 17.06 С 3
{9}
н/о н/о +23.1 +16.2 65 +28 +28 душно 1016.6 988.8
18 17.06 С 3
{13}
н/о н/о +18.5 +16.7 89 +19 +19 1017.4 989.1 +25.3 0.9

 

Местоположение метеостанции Залаэгерсег (Венгрия): широта 46.87 долгота 16.80 высота над уровнем моря 180 м.

В архиве по умолчанию представлена погода в Залаэгерсеге за последнюю неделю. Архивные данные за месяц целиком и за предыдущие месяцы, начиная с января 2011 года, Вы можете получить, выбрав интересующий диапазон дат из раскрывающегося списка и нажав кнопку "Ввод!".


*Определитесь, кто Вы:
робот инопланетянин человек

Внимание! Время в таблицах - всемирное. Для получения местного времени необходимо прибавить поправку, которая равна 1 ч.

Смотрите также архив погоды в соседних городах и на ближайших метеорологических станциях:

Погода в Шармеллеке (Венгрия) (35 км)
Погода в Сентготтхарде (Венгрия) (37 км)
Погода в Сомбатхее (Венгрия) (46 км)
Погода в Надьканиже (Венгрия) (48 км)
Погода в Кляйнциккене (Австрия) (51 км)
Погода в Мурска-Соботе (Словения) (53 км)
Погода в Бад-Радкерсбурге (Австрия) (66 км)
Погода в Бад-Тацмансдорфе (Австрия) (67 км)
Погода в Луцмансбурге (Австрия) (68 км)
Погода в Бад-Глайхенбере (Австрия) (68 км)

Пояснения к столбцам:

Ветер - указаны скорость ветра в м/с - средняя за 10 мин, порывы в срок и между сроками (в фигурных скобках) и направление, откуда дует ветер: С - северный, СВ - северо-восточный, В - восточный, ЮВ - юго-восточный, Ю - южный, ЮЗ - юго-западный, З - западный, СЗ - северо-западный.
Видимость - горизонтальная дальность видимости в метрах или километрах. При видимости от 1 до 10 км при отсутствии осадков обычно наблюдается дымка, при ухудшении видимости до 1 км и менее - туман. В сухую погоду видимость может ухудшаться дымом, пылью или мглою.
Явления - указаны атмосферные явления, наблюдавшиеся в срок или в последний час перед сроком; фигурными скобками обозначены явления, наблюдавшиеся между сроками (за 1-3 часа до срока); квадратными скобками обозначены град или гололедные отложения с указанием их диаметра в мм.
Облачность - указаны через наклонную черту общая и нижняя облачность в баллах и высота нижней границы облаков в метрах; квадратными скобками обозначены формы облаков: Ci - перистые, Cs - перисто-слоистые, Cc - перисто-кучевые, Ac - высококучевые, As - высокослоистые, Sc - слоисто-кучевые, Ns - слоисто-дождевые, Cu - кучевые, Cb - кучево-дождевые. Подробнее классификацию облаков см. в Атласе облаков (PDF).
T - Температура воздуха - температура, измеренная на высоте 2 м над землей.
Td - Температура точки росы - температура, при понижении до которой содержащийся в воздухе водяной пар достигнет насыщения.
f - Относительная влажность воздуха - влажноcть воздуха, измеренная на высоте 2 м над землей.
Te - Эффективная температура - температура, которую ощущает одетый по сезону человек в тени. Характеристика душности погоды. При расчете учитывается влияние влажности воздуха и скорости ветра на теплоощущения человека.
Tes - Эффективная температура на солнце - температура, которую ощущает человек, с поправкой на солнечный нагрев. Характеристика знойности погоды. Зависит от высоты солнца над горизонтом, облачности и скорости ветра. Ночью, в пасмурную погоду, а также при ветре 12 м/с и более поправка равна нулю.
P - Атмосферное давление - приведенное к уровню моря атмосферное давление.
Po - Атмосферное давление - измеренное на уровне метеостанции атмосферное давление.
Tmin - Минимальная температура - минимум температуры воздуха на высоте 2 м над землей.
Tmax - Максимальная температура - максимум температуры воздуха на высоте 2 м над землей.
R - Количество осадков - Количество выпавших осадков за период времени, мм. При наведении курсора мыши на число - период времени, за который выпало указанное количество осадков.
R24 - Количество осадков - Количество выпавших осадков за 24 часа, мм.
S - Снежный покров - Высота снежного покрова, см. При наведении курсора мыши на число - состояние снежного покрова и степень покрытия местности в баллах.